Flag for Canada Weather past 2 weeks in Norfolk, Ontario, Canada

Now
28 °F

Chilly.


Feels Like: 17 °F
Forecast: 17 / 32 °F
Wind: 13 mph from Northwest

Location: Delhi CS

Current Time: Mar 27, 2015 at 6:32:20 AM

Latest Report: Mar 27, 2015 at 5:00 AM


Visibility: N/A

Pressure: 29.86 "Hg

Humidity: 81%

Dew point: 23 °F

Location of NorfolkLocation

Historic Weather in Norfolk — Graph

°F

Norfolk temperature yesterday

Maximum temperature yesterday: 41 °F (at 12:00 AM)
Minimum temperature yesterday: 31 °F (at 8:00 AM)
Average temperature yesterday: 35 °F

Past Weeks' High & Low Weather Summary

 TemperatureHumidityPressure
High47 °F (Mar 16, 3:00 PM)100% (Mar 14, 12:00 AM)30.63 "Hg (Mar 14, 12:00 AM)
Low17 °F (Mar 22, 8:00 AM)27% (Mar 19, 3:00 PM)29.66 "Hg (Mar 17, 2:00 AM)
Average32 °F73%30.13 "Hg
* Reported Mar 12 5:00 AM — Mar 27 5:00 AM, Norfolk, Weather by CustomWeather, © 2015

Note: Actual official high and low records may vary slightly from our data, if they occured in-between our weather recording intervals... More about our weather records

Advertising

Norfolk weather history for previous 24 hours

 ConditionsComfort  
Time TempWeatherWind HumidityBarometerVisibility
5:00 AM
Fri, Mar 27
28 °FChilly.13 mph81%29.86 "HgN/A
4:00 AM30 °FChilly.7 mph90%29.88 "HgN/A
3:00 AM31 °FChilly.7 mph90%29.85 "HgN/A
2:00 AM32 °FChilly.6 mph90%29.85 "HgN/A
1:00 AM32 °FChilly.6 mph90%29.85 "HgN/A
12:00 AM34 °FChilly.5 mph80%29.85 "HgN/A
11:00 PM
Thu, Mar 26
35 °FChilly.5 mph80%29.86 "HgN/A
10:00 PM35 °FChilly.3 mph84%29.86 "HgN/A
9:00 PM35 °FChilly.2 mph85%29.87 "HgN/A
8:00 PM35 °FChilly.2 mph92%29.85 "HgN/A
7:00 PM35 °FChilly.2 mph92%29.82 "HgN/A
6:00 PM35 °FChilly.2 mph94%29.81 "HgN/A
5:00 PM36 °FChilly.3 mph87%29.80 "HgN/A
4:00 PM36 °FChilly.3 mph83%29.79 "HgN/A
3:00 PM36 °FChilly.5 mph84%29.79 "HgN/A
2:00 PM36 °FChilly.5 mph83%29.80 "HgN/A
1:00 PM35 °FChilly.3 mph95%29.81 "HgN/A
12:00 PM33 °FChilly.2 mph100%29.83 "HgN/A
11:00 AM32 °FChilly.3 mph100%29.85 "HgN/A
10:00 AM32 °FChilly.1 mph100%29.85 "HgN/A
9:00 AM32 °FChilly.2 mph100%29.88 "HgN/A
8:00 AM31 °FChilly.2 mph100%29.90 "HgN/A
7:00 AM33 °FChilly.2 mph94%29.89 "HgN/A
6:00 AM33 °FChilly.1 mph90%29.85 "HgN/A
Weather by CustomWeather, © 2015

See weather overviewHow to use our weather pages